TITAN 3C TRANSTAGE DEB, 1646

Orbit data source: Space-Track

TITAN 3C TRANSTAGE DEB, 1646 is space debris in LEO originally from a launch on Fri, 15 Oct 1965 UTC launched from the Air Force Eastern Test Range (AFETR). Debris objects in space refer to the collection of defunct objects orbiting the Earth. Examples of debris include non-operational satellites, rocket bodies, and fragments generated from explosions, collisions, or faulty payload assembly.

Loading next visibility...
TITAN 3C TRANSTAGE DEB details
Identifier
1646, 1965-082H
Orbit
LEO
Last TLE update19 hours ago
Origin
Flag of USUSAF SSD (US)
ManufacturerUnknown
MissionSpacecraft
Bus & MotorUnknown
MassUnknown
Launch date (UTC)
1965-10-15 (59 years ago)
Launch vehicleUnknown
Launch site
Air Force Eastern Test Range (AFETR)
Object type
Payload
Rocket body
Debris
Shape & HBRUnknown
Radar Cross Section1.500 m², Large (>1 m²)

Expand to show TLE details & history

TLE from 19 hours ago
0 TITAN 3C TRANSTAGE DEB
1 01646U 65082H   24355.79075696  .00002228  00000-0  31466-3 0  9993
2 01646  32.3116  34.5101 0002851 308.4471  51.5925 14.75694791139791
Epoch: 2024-12-20T18:58Z
Definitive object data (Epoch: 2024-12-20T18:58:41.401Z)
Latitude-0.00001°
Longitude19.98637°
Altitude640.363 km
Speed7.541 km/s
True Right ascension02h 18m 02s
True Declination0° 00' 00"
Sunlit
Object was in full shadow at TLE epoch
Visualization TLE readout
Latitude-28.42238°
Longitude-106.44444°
Altitude648.673 km
Speed7.535 km/s
Apparent Right ascension20h 49m 51s
Apparent Declination-47° 45' 05"
Sunlit
Object is in daylight
Visualization observer readout
Local Sidereal Time12:57:52
Azimuth121.601° SE
Elevation-45.81°
Doppler factor1
Orbital elements
Apogee altitude648.539 km
Perigee altitude644.534 km
Semi-major axis7,024.674 km
Eccentricity0.0002851
Inclination32.3116°
RAAN34.5101°
Arg. of periapsis308.4471°
True anomaly51.61811°
Mean anomaly51.5925°
Eccentric anomaly51.6053°
Mean motion3.68641 °/min
BSTAR0.00031466
Orbital period97.66 mins
Loading maneuver chart data...

TITAN 3C TRANSTAGE DEB Visibility forecast

Observer location: undefined°, undefined

Span
Click to sort rows by Start time (UTC) header in descending order
Start Az.
Max El. time (UTC)
Max El. Az.
Max El.
End time (UTC)
End Az.
6 mins2024-12-22 06:58:49.732Z207° SW2024-12-22 07:00:49.732Z173.384° S22.679°2024-12-22 07:04:49.732Z113.137° SE
7 mins2024-12-22 08:40:49.732Z236.944° WSW2024-12-22 08:43:49.732Z185.547° SSW27.974°2024-12-22 08:47:49.732Z120.63° SE
5 mins2024-12-22 10:24:49.732Z229.415° WSW2024-12-22 10:26:49.732Z195.257° SSW20.957°2024-12-22 10:29:49.732Z150.164° SSE
|